Bel Air, Maryland - USA


Today's Data File


8/31/26
Time         Wind Dir   Wind Spd  Wind Gust     Hum In   Humidity    Temp In       Temp  Raw Barom Wind Chill  Press Alt Cloud Base   Dens Alt Temp Out R  DailyRain   24HrRain   RainRate
                    �        mph        mph          %          %         �F         �F         in         �F         ft         ft         ft      �F/hr         in         in      in/hr
12:00am           203          0          0         44         97       72.6       74.9      29.51       74.9        381        226       1514      -1.05       0.00       0.00      0.000
12:02am           203          0          0         44         97       72.4       74.8      29.51       74.8        383        226       1510      -1.10       0.00       0.00      0.000
12:03am           203          0          0         44         97       72.4       74.8      29.51       74.8        384        226       1511      -1.10       0.00       0.00      0.000
12:04am           203          0          0         44         97       72.4       74.8      29.51       74.8        384        226       1511      -1.08       0.00       0.00      0.000
12:05am           203          0          0         44         97       72.4       74.7      29.51       74.7        384        226       1504      -1.16       0.00       0.00      0.000
12:06am           203          0          0         44         97       72.4       74.7      29.51       74.7        383        226       1503      -1.14       0.00       0.00      0.000
12:07am           203          0          0         44         97       72.4       74.7      29.51       74.7        384        226       1504      -1.13       0.00       0.00      0.000
12:08am           203          0          0         44         97       72.4       74.7      29.51       74.7        383        226       1503      -1.11       0.00       0.00      0.000
12:09am           203          0          0         44         97       72.4       74.7      29.51       74.7        383        226       1503      -1.09       0.00       0.00      0.000
12:10am           203          0          0         44         97       72.4       74.6      29.51       74.6        383        226       1497      -1.17       0.00       0.00      0.000
12:11am           203          0          0         44         97       72.4       74.6      29.51       74.6        383        226       1497      -1.15       0.00       0.00      0.000
12:12am           203          0          0         44         97       72.4       74.7      29.51       74.7        384        226       1504      -1.03       0.00       0.00      0.000
12:13am           203          0          0         46         97       72.4       74.6      29.51       74.6        384        226       1498      -1.12       0.00       0.00      0.000
12:14am           203          0          0         44         97       72.4       74.6      29.51       74.6        384        226       1498      -1.10       0.00       0.00      0.000
12:15am           203          0          0         44         97       72.4       74.6      29.51       74.6        384        226       1499      -1.08       0.00       0.00      0.000
12:16am           203          0          0         44         97       72.4       74.6      29.51       74.6        384        226       1498      -1.06       0.00       0.00      0.000
12:17am           203          0          0         44         97       72.4       74.6      29.51       74.6        383        226       1497      -1.04       0.00       0.00      0.000
12:18am           203          0          0         44         97       72.4       74.6      29.51       74.6        381        226       1495      -1.03       0.00       0.00      0.000
12:19am           203          0          0         44         97       72.4       74.5      29.51       74.5        382        226       1489      -1.11       0.00       0.00      0.000
12:20am           203          0          0         44         97       72.4       74.6      29.51       74.6        381        226       1495      -0.99       0.00       0.00      0.000
12:21am           203          0          0         44         97       72.4       74.6      29.51       74.6        380        226       1494      -0.97       0.00       0.00      0.000
12:22am           203          0          0         44         97       72.4       74.6      29.51       74.6        381        226       1495      -0.96       0.00       0.00      0.000
12:23am           203          0          0         44         97       72.4       74.6      29.51       74.6        381        226       1495      -0.94       0.00       0.00      0.000
12:24am           203          0          0         44         97       72.6       74.6      29.51       74.6        381        226       1495      -0.93       0.00       0.00      0.000
12:25am           203          0          0         44         97       72.6       74.7      29.51       74.7        382        226       1502      -0.81       0.00       0.00      0.000
12:26am           203          0          0         44         97       72.6       74.6      29.51       74.6        382        226       1496      -0.90       0.00       0.00      0.000
12:27am           203          0          0         44         97       72.6       74.6      29.51       74.6        382        226       1496      -0.88       0.00       0.00      0.000
12:28am           203          0          0         44         97       72.6       74.7      29.51       74.7        382        226       1502      -0.77       0.00       0.00      0.000
12:29am           203          0          0         44         97       72.6       74.6      29.51       74.6        384        226       1498      -0.85       0.00       0.00      0.000
12:30am           203          0          0         44         97       72.6       74.6      29.51       74.6        384        226       1498      -0.84       0.00       0.00      0.000
12:31am           203          0          0         44         97       72.6       74.6      29.51       74.6        384        226       1499      -0.83       0.00       0.00      0.000
12:32am           203          0          0         46         97       72.6       74.6      29.51       74.6        384        226       1498      -0.81       0.00       0.00      0.000
12:33am           203          0          0         44         97       72.6       74.6      29.51       74.6        384        226       1498      -0.80       0.00       0.00      0.000
12:34am           203          0          0         44         97       72.6       74.6      29.51       74.6        384        226       1498      -0.79       0.00       0.00      0.000
12:35am           203          0          0         44         97       72.6       74.5      29.51       74.5        383        226       1491      -0.87       0.00       0.00      0.000
12:36am           203          0          0         44         97       72.6       74.6      29.51       74.6        381        226       1495      -0.76       0.00       0.00      0.000
12:37am           203          0          0         44         97       72.6       74.5      29.51       74.5        380        226       1487      -0.84       0.00       0.00      0.000
12:38am           203          0          0         44         97       72.6       74.5      29.51       74.5        379        226       1486      -0.83       0.00       0.00      0.000
12:39am           203          0          0         44         97       72.6       74.5      29.51       74.5        379        226       1486      -0.82       0.00       0.00      0.000
12:40am           203          0          0         44         97       72.6       74.5      29.51       74.5        379        226       1486      -0.80       0.00       0.00      0.000
12:41am           203          0          0         44         97       72.4       74.5      29.51       74.5        378        226       1485      -0.79       0.00       0.00      0.000
12:42am           203          0          0         44         97       72.4       74.5      29.51       74.5        378        226       1485      -0.78       0.00       0.00      0.000
12:43am           203          0          0         44         97       72.4       74.4      29.51       74.4        378        226       1479      -0.86       0.00       0.00      0.000
12:44am           203          0          0         44         97       72.4       74.4      29.51       74.4        379        226       1480      -0.85       0.00       0.00      0.000
12:45am           203          0          0         44         97       72.4       74.4      29.51       74.4        379        226       1480      -0.83       0.00       0.00      0.000
12:46am           203          0          0         44         97       72.4       74.4      29.51       74.4        379        226       1480      -0.82       0.00       0.00      0.000
12:47am           203          0          0         44         97       72.4       74.4      29.51       74.4        379        226       1480      -0.81       0.00       0.00      0.000
12:48am           203          0          0         44         97       72.4       74.4      29.51       74.4        379        226       1480      -0.79       0.00       0.00      0.000
12:49am           141          0          0         44         97       72.4       74.4      29.51       74.4        379        226       1480      -0.78       0.00       0.00      0.000
12:50am           141          0          0         44         97       72.4       74.4      29.51       74.4        378        226       1479      -0.77       0.00       0.00      0.000
12:51am           111          0          0         44         97       72.4       74.4      29.51       74.4        378        226       1479      -0.75       0.00       0.00      0.000
12:52am           111          0          0         44         97       72.4       74.4      29.51       74.4        378        226       1479      -0.74       0.00       0.00      0.000
12:53am           111          0          0         44         97       72.4       74.4      29.51       74.4        378        226       1479      -0.73       0.00       0.00      0.000
12:54am           111          0          0         44         98       72.4       74.3      29.51       74.3        378        149       1472      -0.82       0.00       0.00      0.000
12:55am           111          0          0         44         97       72.4       74.3      29.51       74.3        378        226       1472      -0.80       0.00       0.00      0.000
12:56am           111          0          0         44         98       72.4       74.3      29.51       74.3        378        149       1472      -0.79       0.00       0.00      0.000
12:57am           111          0          0         44         98       72.4       74.3      29.51       74.3        378        149       1472      -0.78       0.00       0.00      0.000
12:58am           111          0          0         44         97       72.4       74.4      29.51       74.4        378        226       1479      -0.66       0.00       0.00      0.000
12:59am           105          0          0         44         98       72.4       74.3      29.51       74.3        377        149       1471      -0.75       0.00       0.00      0.000
1:00am            105          0          0         44         97       72.4       74.3      29.51       74.3        378        226       1472      -0.74       0.00       0.00      0.000
1:01am            105          0          0         44         97       72.4       74.3      29.51       74.3        378        226       1472      -0.73       0.00       0.00      0.000
1:02am            105          0          0         44         97       72.4       74.3      29.51       74.3        378        226       1472      -0.71       0.00       0.00      0.000
1:03am            105          0          0         44         98       72.4       74.3      29.51       74.3        378        149       1472      -0.70       0.00       0.00      0.000
1:04am            105          0          0         44         98       72.4       74.3      29.51       74.3        378        149       1472      -0.69       0.00       0.00      0.000
1:05am            105          0          0         44         98       72.4       74.2      29.51       74.2        379        149       1467      -0.78       0.00       0.00      0.000
1:06am            100          0          3         44         98       72.4       74.2      29.51       74.2        379        149       1467      -0.77       0.00       0.00      0.000
1:07am            100          0          3         44         98       72.4       74.3      29.51       74.3        379        149       1473      -0.65       0.00       0.00      0.000
1:08am            100          1          3         44         98       72.4       74.2      29.51       74.2        379        149       1467      -0.74       0.00       0.00      0.000
1:09am            100          0          3         44         98       72.6       74.2      29.51       74.2        379        149       1467      -0.73       0.00       0.00      0.000
1:10am            100          0          3         44         98       72.6       74.2      29.51       74.2        378        149       1466      -0.72       0.00       0.00      0.000
1:11am            100          1          1         44         98       72.6       74.3      29.51       74.3        378        149       1472      -0.61       0.00       0.00      0.000
1:12am            100          1          1         44         98       72.6       74.2      29.51       74.2        378        149       1466      -0.70       0.00       0.00      0.000
1:13am            100          0          1         44         98       72.6       74.2      29.51       74.2        378        149       1466      -0.68       0.00       0.00      0.000
1:14am            100          0          1         44         98       72.6       74.2      29.51       74.2        378        149       1466      -0.67       0.00       0.00      0.000
1:15am            100          0          1         44         98       72.6       74.2      29.51       74.2        378        149       1466      -0.66       0.00       0.00      0.000
1:16am            100          0          0         44         98       72.6       74.1      29.51       74.1        378        149       1460      -0.75       0.00       0.00      0.000
1:17am            100          0          0         44         98       72.6       74.1      29.51       74.1        378        149       1460      -0.74       0.00       0.00      0.000
1:18am            100          0          0         44         98       72.4       74.1      29.51       74.1        378        149       1460      -0.73       0.00       0.00      0.000
1:19am            100          0          0         44         98       72.4       74.1      29.51       74.1        378        149       1460      -0.72       0.00       0.00      0.000
1:20am            100          0          0         44         98       72.4       74.1      29.51       74.1        378        149       1460      -0.70       0.00       0.00      0.000
1:21am            100          0          0         44         98       72.4       74.1      29.51       74.1        377        149       1459      -0.69       0.00       0.00      0.000
1:22am            100          0          0         44         98       72.4       74.0      29.51       74.0        377        149       1452      -0.78       0.00       0.00      0.000
1:23am            100          0          0         44         98       72.4       74.0      29.51       74.0        377        149       1452      -0.77       0.00       0.00      0.000
1:24am            100          0          0         44         98       72.4       74.0      29.51       74.0        377        149       1452      -0.76       0.00       0.00      0.000
1:25am            100          0          0         44         98       72.4       74.1      29.51       74.1        377        149       1459      -0.64       0.00       0.00      0.000
1:26am            100          0          0         44         98       72.4       74.0      29.51       74.0        377        149       1452      -0.73       0.00       0.00      0.000
1:27am            100          0          0         44         98       72.4       74.0      29.51       74.0        377        149       1452      -0.72       0.00       0.00      0.000
1:28am            100          0          0         44         98       72.4       74.1      29.51       74.1        378        149       1460      -0.61       0.00       0.00      0.000
1:29am            100          0          0         44         98       72.4       74.0      29.51       74.0        378        149       1453      -0.70       0.00       0.00      0.000
1:30am            100          0          0         44         98       72.4       74.0      29.51       74.0        378        149       1453      -0.69       0.00       0.00      0.000
1:31am            100          0          0         44         98       72.4       74.0      29.51       74.0        379        149       1454      -0.68       0.00       0.00      0.000
1:32am            100          0          0         44         98       72.4       74.0      29.51       74.0        379        149       1454      -0.67       0.00       0.00      0.000
1:33am            100          0          0         44         98       72.4       74.0      29.51       74.0        379        149       1454      -0.65       0.00       0.00      0.000
1:34am            100          0          0         44         98       72.4       74.0      29.51       74.0        378        149       1453      -0.64       0.00       0.00      0.000
1:35am            100          1          1         44         98       72.4       74.0      29.51       74.0        378        149       1453      -0.63       0.00       0.00      0.000
1:36am            100          0          1         44         98       72.4       74.0      29.51       74.0        378        149       1453      -0.62       0.00       0.00      0.000
1:37am            100          0          1         44         98       72.4       74.0      29.51       74.0        378        149       1453      -0.61       0.00       0.00      0.000
1:38am            100          0          1         44         98       72.4       74.0      29.51       74.0        379        149       1454      -0.60       0.00       0.00      0.000
1:39am            100          0          1         44         98       72.4       73.9      29.51       73.9        379        149       1448      -0.69       0.00       0.00      0.000
1:40am            100          1          1         44         98       72.4       73.9      29.51       73.9        378        149       1447      -0.68       0.00       0.00      0.000
1:41am            100          0          1         44         98       72.4       73.9      29.51       73.9        378        149       1447      -0.67       0.00       0.00      0.000
1:42am            100          0          1         44         98       72.4       74.0      29.51       74.0        379        149       1454      -0.56       0.00       0.00      0.000
1:43am            100          0          1         44         98       72.4       74.0      29.51       74.0        378        149       1453      -0.54       0.00       0.00      0.000
1:44am            100          0          1         44         98       72.4       74.0      29.51       74.0        379        149       1454      -0.53       0.00       0.00      0.000
1:45am            100          0          1         44         98       72.4       74.0      29.51       74.0        379        149       1454      -0.53       0.00       0.00      0.000
1:46am            100          0          0         44         98       72.4       73.9      29.51       73.9        379        149       1448      -0.62       0.00       0.00      0.000
1:47am            100          0          0         44         98       72.4       73.9      29.51       73.9        379        149       1448      -0.61       0.00       0.00      0.000
1:48am            100          0          0         44         98       72.4       73.9      29.51       73.9        379        149       1448      -0.60       0.00       0.00      0.000
1:49am            100          0          0         44         98       72.6       73.9      29.51       73.9        379        149       1448      -0.59       0.00       0.00      0.000
1:50am            100          0          0         44         98       72.6       73.9      29.51       73.9        379        149       1448      -0.58       0.00       0.00      0.000
1:51am            100          0          0         44         98       72.6       73.8      29.51       73.8        379        149       1442      -0.67       0.00       0.00      0.000
1:52am            100          0          0         44         98       72.6       73.9      29.51       73.9        379        149       1448      -0.56       0.00       0.00      0.000
1:53am            100          0          0         44         98       72.6       73.8      29.51       73.8        379        149       1442      -0.64       0.00       0.00      0.000
1:54am            100          0          0         44         98       72.6       73.8      29.51       73.8        379        149       1442      -0.63       0.00       0.00      0.000
1:55am            100          0          0         44         98       72.6       73.8      29.51       73.8        379        149       1442      -0.62       0.00       0.00      0.000
1:56am            100          0          0         44         98       72.6       73.8      29.51       73.8        380        149       1443      -0.61       0.00       0.00      0.000
1:57am            100          0          0         44         98       72.6       73.8      29.51       73.8        380        149       1443      -0.60       0.00       0.00      0.000
1:58am            100          0          0         44         98       72.6       73.8      29.51       73.8        381        149       1444      -0.59       0.00       0.00      0.000
1:59am            100          0          0         44         98       72.6       73.8      29.51       73.8        381        149       1444      -0.58       0.00       0.00      0.000
2:00am            100          0          0         44         98       72.4       73.8      29.51       73.8        382        149       1445      -0.57       0.00       0.00      0.000
2:01am            100          0          0         44         98       72.6       73.8      29.51       73.8        382        149       1445      -0.56       0.00       0.00      0.000
2:02am            100          0          0         44         98       72.4       73.8      29.51       73.8        382        149       1445      -0.55       0.00       0.00      0.000
2:03am            100          0          0         44         98       72.4       73.8      29.51       73.8        383        149       1446      -0.55       0.00       0.00      0.000
2:04am            100          0          0         44         98       72.4       73.8      29.51       73.8        383        149       1446      -0.54       0.00       0.00      0.000
2:05am            100          0          0         44         98       72.4       73.8      29.51       73.8        384        149       1447      -0.53       0.00       0.00      0.000
2:06am            100          0          0         44         98       72.4       73.8      29.51       73.8        384        149       1447      -0.52       0.00       0.00      0.000
2:07am            100          0          0         44         98       72.4       73.7      29.51       73.7        384        149       1441      -0.61       0.00       0.00      0.000
2:08am            100          0          0         44         98       72.4       73.7      29.51       73.7        385        149       1443      -0.60       0.00       0.00      0.000
2:09am            100          0          0         44         98       72.4       73.8      29.51       73.8        384        149       1449      -0.49       0.00       0.00      0.000
2:10am            100          0          0         44         98       72.4       73.7      29.51       73.7        385        149       1443      -0.58       0.00       0.00      0.000
2:11am            100          0          0         44         98       72.4       73.7      29.50       73.7        386        149       1444      -0.57       0.00       0.00      0.000
2:12am            100          0          0         44         98       72.4       73.7      29.50       73.7        386        149       1444      -0.56       0.00       0.00      0.000
2:13am            100          0          0         44         98       72.4       73.7      29.50       73.7        388        149       1447      -0.55       0.00       0.00      0.000
2:14am            100          0          0         44         98       72.4       73.6      29.50       73.6        389        149       1441      -0.64       0.00       0.00      0.000
2:15am            100          0          0         44         98       72.4       73.6      29.50       73.6        389        149       1441      -0.63       0.00       0.00      0.000
2:16am            100          0          0         44         98       72.4       73.6      29.50       73.6        388        149       1440      -0.62       0.00       0.00      0.000
2:17am            100          0          0         44         98       72.4       73.6      29.50       73.6        389        149       1441      -0.61       0.00       0.00      0.000
2:18am            100          0          0         44         98       72.4       73.6      29.50       73.6        389        149       1441      -0.60       0.00       0.00      0.000
2:19am            100          0          0         44         98       72.4       73.6      29.50       73.6        390        149       1443      -0.59       0.00       0.00      0.000
2:20am            100          0          0         44         98       72.4       73.6      29.50       73.6        390        149       1443      -0.58       0.00       0.00      0.000
2:21am            100          0          0         44         98       72.4       73.5      29.50       73.5        390        149       1436      -0.67       0.00       0.00      0.000
2:22am            100          0          0         44         98       72.4       73.5      29.50       73.5        390        149       1436      -0.66       0.00       0.00      0.000
2:23am            100          0          0         44         98       72.4       73.5      29.50       73.5        390        149       1436      -0.65       0.00       0.00      0.000
2:24am            100          0          0         44         98       72.4       73.5      29.50       73.5        391        149       1437      -0.64       0.00       0.00      0.000
2:25am            100          0          0         44         98       72.6       73.5      29.50       73.5        391        149       1437      -0.63       0.00       0.00      0.000
2:26am            100          0          0         44         98       72.6       73.5      29.50       73.5        391        149       1437      -0.61       0.00       0.00      0.000
2:27am            100          0          0         44         98       72.6       73.5      29.50       73.5        392        149       1439      -0.60       0.00       0.00      0.000
2:28am            100          0          0         44         98       72.6       73.4      29.50       73.4        392        149       1432      -0.69       0.00       0.00      0.000
2:29am            100          0          0         44         98       72.6       73.4      29.50       73.4        392        149       1432      -0.68       0.00       0.00      0.000
2:30am            100          0          0         45         98       72.6       73.4      29.50       73.4        392        149       1432      -0.67       0.00       0.00      0.000
2:31am            100          0          0         44         98       72.6       73.4      29.50       73.4        392        149       1432      -0.66       0.00       0.00      0.000
2:32am            100          0          0         44         98       72.6       73.4      29.50       73.4        393        149       1433      -0.65       0.00       0.00      0.000
2:33am            100          0          0         44         99       72.6       73.3      29.50       73.3        393         73       1427      -0.74       0.00       0.00      0.000
2:34am            100          0          0         44         99       72.6       73.3      29.50       73.3        393         73       1427      -0.72       0.00       0.00      0.000
2:35am            100          0          0         44         99       72.6       73.3      29.50       73.3        393         73       1427      -0.71       0.00       0.00      0.000
2:36am            100          0          0         44         99       72.6       73.3      29.50       73.3        393         73       1427      -0.70       0.00       0.00      0.000
2:37am            100          0          0         44         99       72.6       73.3      29.50       73.3        393         73       1427      -0.69       0.00       0.00      0.000
2:38am            100          0          0         44         99       72.6       73.3      29.50       73.3        393         73       1427      -0.68       0.00       0.00      0.000
2:39am            100          0          0         44         99       72.6       73.3      29.50       73.3        393         73       1427      -0.67       0.00       0.00      0.000
2:40am            100          0          0         44         99       72.6       73.2      29.50       73.2        393         73       1421      -0.75       0.00       0.00      0.000
2:41am            100          0          0         44         99       72.6       73.2      29.50       73.2        393         73       1421      -0.74       0.00       0.00      0.000
2:42am            100          0          0         44         99       72.6       73.2      29.50       73.2        393         73       1421      -0.73       0.00       0.00      0.000
2:43am            100          0          0         44         99       72.6       73.2      29.50       73.2        393         73       1421      -0.72       0.00       0.00      0.000
2:44am            100          0          0         44         99       72.6       73.2      29.50       73.2        393         73       1421      -0.71       0.00       0.00      0.000
2:45am            100          0          0         44         99       72.4       73.2      29.50       73.2        393         73       1421      -0.69       0.00       0.00      0.000
2:46am            100          0          0         44         99       72.4       73.1      29.50       73.1        393         73       1414      -0.78       0.00       0.00      0.000
2:47am            100          0          0         44         99       72.4       73.1      29.50       73.1        393         73       1414      -0.77       0.00       0.00      0.000
2:48am            100          0          0         44         99       72.4       73.2      29.50       73.2        393         73       1421      -0.66       0.00       0.00      0.000
2:49am            100          0          0         44         99       72.4       73.1      29.50       73.1        393         73       1414      -0.74       0.00       0.00      0.000
2:50am            100          0          0         44         99       72.4       73.1      29.50       73.1        393         73       1414      -0.73       0.00       0.00      0.000
2:51am            100          0          0         44         99       72.4       73.1      29.50       73.1        394         73       1415      -0.72       0.00       0.00      0.000
2:52am            100          0          0         44         99       72.4       73.0      29.50       73.0        394         73       1409      -0.81       0.00       0.00      0.000
2:53am            100          0          0         44         99       72.4       73.0      29.50       73.0        394         73       1409      -0.80       0.00       0.00      0.000
2:54am            100          0          0         44         99       72.4       73.1      29.50       73.1        394         73       1415      -0.68       0.00       0.00      0.000
2:55am            100          0          0         44         99       72.4       73.0      29.50       73.0        394         73       1409      -0.77       0.00       0.00      0.000
2:56am            100          0          0         44         99       72.4       73.0      29.50       73.0        393         73       1408      -0.76       0.00       0.00      0.000
2:57am            100          0          0         44         99       72.4       73.0      29.50       73.0        393         73       1408      -0.75       0.00       0.00      0.000
2:58am            100          0          0         44         99       72.4       73.0      29.50       73.0        393         73       1408      -0.73       0.00       0.00      0.000
2:59am            100          0          0         44         99       72.4       73.0      29.50       73.0        393         73       1408      -0.72       0.00       0.00      0.000
3:00am            100          0          0         44         99       72.4       73.0      29.50       73.0        393         73       1408      -0.71       0.00       0.00      0.000
3:01am            100          0          0         44         99       72.6       73.0      29.50       73.0        393         73       1408      -0.70       0.00       0.00      0.000
3:02am            100          0          0         44         99       72.6       73.0      29.50       73.0        393         73       1408      -0.69       0.00       0.00      0.000
3:03am            100          0          0         44         99       72.6       72.9      29.50       72.9        393         73       1402      -0.78       0.00       0.00      0.000
3:04am            100          0          0         44         99       72.6       73.0      29.50       73.0        393         73       1408      -0.66       0.00       0.00      0.000
3:05am            100          0          0         44         99       72.6       72.9      29.50       72.9        393         73       1402      -0.75       0.00       0.00      0.000
3:06am            100          0          0         44         99       72.6       72.9      29.50       72.9        393         73       1402      -0.74       0.00       0.00      0.000
3:07am            100          0          0         44         99       72.6       72.9      29.50       72.9        393         73       1402      -0.73       0.00       0.00      0.000
3:08am            100          0          0         44         99       72.6       72.9      29.50       72.9        393         73       1402      -0.72       0.00       0.00      0.000
3:09am            100          0          0         44         99       72.6       72.9      29.50       72.9        394         73       1403      -0.70       0.00       0.00      0.000
3:10am            100          0          0         44         99       72.6       72.8      29.50       72.8        394         73       1396      -0.79       0.00       0.00      0.000
3:11am            100          0          0         44         99       72.6       72.8      29.50       72.8        394         73       1396      -0.78       0.00       0.00      0.000
3:12am            100          0          0         44         99       72.6       72.8      29.50       72.8        394         73       1396      -0.76       0.00       0.00      0.000
3:13am            100          0          0         44         99       72.6       72.8      29.50       72.8        395         73       1397      -0.75       0.00       0.00      0.000
3:14am            100          0          0         44         99       72.6       72.8      29.50       72.8        395         73       1397      -0.74       0.00       0.00      0.000
3:15am            100          0          0         44         99       72.6       72.8      29.50       72.8        395         73       1397      -0.73       0.00       0.00      0.000
3:16am            100          0          0         44         99       72.6       72.8      29.50       72.8        395         73       1397      -0.72       0.00       0.00      0.000
3:17am            100          0          0         44         99       72.6       72.8      29.50       72.8        395         73       1397      -0.70       0.00       0.00      0.000
3:18am            100          0          0         44         99       72.6       72.8      29.50       72.8        395         73       1397      -0.69       0.00       0.00      0.000
3:19am            100          0          0         44         99       72.6       72.8      29.50       72.8        395         73       1397      -0.68       0.00       0.00      0.000
3:20am            100          0          0         44         99       72.6       72.8      29.50       72.8        395         73       1397      -0.67       0.00       0.00      0.000
3:21am            100          0          0         44         99       72.6       72.8      29.50       72.8        394         73       1396      -0.66       0.00       0.00      0.000
3:22am            100          0          0         44         99       72.6       72.8      29.50       72.8        394         73       1396      -0.65       0.00       0.00      0.000
3:23am            100          0          0         44         99       72.6       72.8      29.50       72.8        393         73       1395      -0.64       0.00       0.00      0.000
3:24am            100          0          0         44         99       72.6       72.7      29.50       72.7        393         73       1389      -0.73       0.00       0.00      0.000
3:25am            100          0          0         44         99       72.6       72.7      29.50       72.7        393         73       1389      -0.71       0.00       0.00      0.000
3:26am            100          0          0         44         99       72.6       72.8      29.50       72.8        393         73       1395      -0.60       0.00       0.00      0.000
3:27am            100          0          0         44         99       72.6       72.7      29.50       72.7        393         73       1389      -0.69       0.00       0.00      0.000
3:28am            100          0          0         44         99       72.6       72.6      29.50       72.6        393         73       1382      -0.78       0.00       0.00      0.000
3:29am            100          0          0         44         99       72.6       72.6      29.50       72.6        393         73       1382      -0.77       0.00       0.00      0.000
3:30am            100          0          0         44         99       72.6       72.7      29.50       72.7        393         73       1389      -0.66       0.00       0.00      0.000
3:31am            100          0          0         44         99       72.6       72.6      29.50       72.6        393         73       1382      -0.74       0.00       0.00      0.000
3:32am            100          0          0         44         99       72.6       72.6      29.50       72.6        394         73       1384      -0.73       0.00       0.00      0.000
3:33am            100          0          0         44         99       72.6       72.6      29.50       72.6        394         73       1384      -0.72       0.00       0.00      0.000
3:34am            100          0          0         44         99       72.6       72.7      29.50       72.7        395         73       1391      -0.61       0.00       0.00      0.000
3:35am            100          0          0         44         99       72.6       72.6      29.50       72.6        395         73       1385      -0.70       0.00       0.00      0.000
3:36am            100          0          0         44         99       72.6       72.6      29.50       72.6        394         73       1384      -0.68       0.00       0.00      0.000
3:37am            100          0          0         44         99       72.6       72.6      29.50       72.6        394         73       1384      -0.67       0.00       0.00      0.000
3:38am            100          0          0         44         99       72.6       72.6      29.50       72.6        393         73       1382      -0.66       0.00       0.00      0.000
3:39am            100          0          0         44         99       72.6       72.6      29.50       72.6        393         73       1382      -0.65       0.00       0.00      0.000
3:40am            100          0          0         44         99       72.6       72.6      29.50       72.6        393         73       1382      -0.64       0.00       0.00      0.000
3:41am            100          0          0         44         99       72.6       72.6      29.50       72.6        393         73       1382      -0.63       0.00       0.00      0.000
3:42am            100          0          0         44         99       72.6       72.6      29.50       72.6        393         73       1382      -0.62       0.00       0.00      0.000
3:43am            100          0          0         44         99       72.6       72.6      29.50       72.6        393         73       1382      -0.61       0.00       0.00      0.000
3:44am            100          0          0         44         99       72.6       72.5      29.50       72.5        393         73       1376      -0.70       0.00       0.00      0.000
3:45am            100          0          0         44         99       72.6       72.5      29.50       72.5        393         73       1376      -0.69       0.00       0.00      0.000
3:46am            100          0          0         44         99       72.6       72.5      29.50       72.5        393         73       1376      -0.68       0.00       0.00      0.000
3:47am            100          0          0         44         99       72.6       72.6      29.50       72.6        393         73       1382      -0.57       0.00       0.00      0.000
3:48am            100          0          0         44         99       72.6       72.5      29.50       72.5        393         73       1376      -0.66       0.00       0.00      0.000
3:49am            100          0          0         44         99       72.6       72.5      29.50       72.5        393         73       1376      -0.65       0.00       0.00      0.000
3:50am            100          0          0         44         99       72.6       72.5      29.50       72.5        393         73       1376      -0.64       0.00       0.00      0.000
3:51am            100          0          0         44         99       72.8       72.5      29.50       72.5        393         73       1376      -0.62       0.00       0.00      0.000
3:52am            100          0          0         44         99       72.8       72.5      29.50       72.5        393         73       1376      -0.61       0.00       0.00      0.000
3:53am            100          0          0         44         99       72.8       72.5      29.50       72.5        393         73       1376      -0.61       0.00       0.00      0.000
3:54am            100          0          0         44         99       72.8       72.5      29.50       72.5        393         73       1376      -0.60       0.00       0.00      0.000
3:55am            100          0          0         44         99       72.8       72.6      29.50       72.6        394         73       1384      -0.49       0.00       0.00      0.000
3:56am            100          0          0         44         99       72.8       72.5      29.50       72.5        393         73       1376      -0.58       0.00       0.00      0.000
3:57am            100          0          0         44         99       72.8       72.5      29.50       72.5        393         73       1376      -0.57       0.00       0.00      0.000
3:58am            100          0          0         44         99       72.8       72.5      29.50       72.5        393         73       1376      -0.56       0.00       0.00      0.000
3:59am            100          1          1         44         99       72.8       72.5      29.50       72.5        393         73       1376      -0.55       0.00       0.00      0.000
4:00am            100          1          2         44         99       72.8       72.5      29.50       72.5        393         73       1376      -0.54       0.00       0.00      0.000
4:01am            100          1          2         44         99       72.8       72.5      29.50       72.5        392         73       1375      -0.53       0.00       0.00      0.000
4:02am            100          1          2         44         99       72.8       72.6      29.50       72.6        393         73       1382      -0.42       0.00       0.00      0.000
4:03am            100          1          2         44         99       72.8       72.5      29.50       72.5        393         73       1376      -0.51       0.00       0.00      0.000
4:04am            100          1          2         44         99       72.8       72.5      29.50       72.5        392         73       1375      -0.51       0.00       0.00      0.000
4:05am            100          1          2         44         99       72.8       72.6      29.50       72.6        392         73       1381      -0.40       0.00       0.00      0.000
4:06am            100          0          1         44         99       72.8       72.5      29.50       72.5        391         73       1374      -0.49       0.00       0.00      0.000
4:07am            100          0          1         44         99       72.8       72.5      29.50       72.5        391         73       1374      -0.48       0.00       0.00      0.000
4:08am            100          1          1         44         99       72.8       72.5      29.50       72.5        391         73       1374      -0.47       0.00       0.00      0.000
4:09am            100          0          1         44         99       72.8       72.5      29.50       72.5        391         73       1374      -0.47       0.00       0.00      0.000
4:10am            100          2          2         44         99       72.8       72.5      29.50       72.5        391         73       1374      -0.46       0.00       0.00      0.000
4:11am            102          1          3         44         99       72.8       72.5      29.50       72.5        390         73       1373      -0.45       0.00       0.00      0.000
4:12am            102          2          3         44         99       72.6       72.5      29.50       72.5        390         73       1373      -0.44       0.00       0.00      0.000
4:13am            102          0          3         44         99       72.6       72.5      29.50       72.5        390         73       1373      -0.44       0.00       0.00      0.000
4:14am            102          0          3         44         99       72.6       72.5      29.50       72.5        389         73       1372      -0.43       0.00       0.00      0.000
4:15am            102          1          3         44         99       72.6       72.5      29.50       72.5        390         73       1373      -0.42       0.00       0.00      0.000
4:16am            102          0          2         44         99       72.6       72.5      29.50       72.5        391         73       1374      -0.41       0.00       0.00      0.000
4:17am            102          0          2         44         99       72.6       72.5      29.50       72.5        391         73       1374      -0.41       0.00       0.00      0.000
4:18am            102          0          2         44         99       72.6       72.5      29.50       72.5        391         73       1374      -0.40       0.00       0.00      0.000
4:19am            102          0          2         44         99       72.6       72.4      29.50       72.4        390         73       1366      -0.49       0.00       0.00      0.000
4:20am            102          0          2         44         99       72.6       72.5      29.50       72.5        389         73       1372      -0.38       0.00       0.00      0.000
4:21am            102          0          0         44         99       72.6       72.4      29.50       72.4        389         73       1365      -0.48       0.00       0.00      0.000
4:22am            102          0          0         44         99       72.6       72.4      29.50       72.4        388         73       1364      -0.47       0.00       0.00      0.000
4:23am            102          0          0         44         99       72.6       72.4      29.50       72.4        387         73       1363      -0.46       0.00       0.00      0.000
4:24am            102          0          0         44         99       72.6       72.4      29.50       72.4        386         73       1362      -0.45       0.00       0.00      0.000
4:25am            102          0          0         44         99       72.6       72.3      29.51       72.3        384         73       1353      -0.54       0.00       0.00      0.000
4:26am            102          0          0         44         99       72.6       72.3      29.51       72.3        384         73       1352      -0.54       0.00       0.00      0.000
4:27am            102          0          0         44         99       72.6       72.3      29.51       72.3        384         73       1352      -0.53       0.00       0.00      0.000
4:28am            102          0          1         44         99       72.6       72.3      29.51       72.3        384         73       1352      -0.52       0.00       0.00      0.000
4:29am            102          1          1         44         99       72.8       72.3      29.51       72.3        384         73       1353      -0.51       0.00       0.00      0.000
4:30am            102          0          1         44         99       72.8       72.3      29.51       72.3        384         73       1353      -0.50       0.00       0.00      0.000
4:31am            102          0          0         44         99       72.8       72.3      29.51       72.3        384         73       1353      -0.49       0.00       0.00      0.000
4:32am            102          0          1         44         99       72.8       72.3      29.51       72.3        384         73       1353      -0.49       0.00       0.00      0.000
4:33am            102          0          1         44         99       72.8       72.3      29.51       72.3        384         73       1353      -0.48       0.00       0.00      0.000
4:34am            102          0          1         44         99       72.8       72.2      29.51       72.2        384         73       1346      -0.57       0.00       0.00      0.000
4:35am            102          0          1         44         99       72.8       72.2      29.51       72.2        384         73       1347      -0.56       0.00       0.00      0.000
4:36am            102          0          0         44         99       72.8       72.2      29.51       72.2        383         73       1345      -0.55       0.00       0.00      0.000
4:37am            102          0          0         44         99       72.8       72.2      29.51       72.2        382         73       1344      -0.54       0.00       0.00      0.000
4:38am            102          0          0         44         99       72.8       72.2      29.51       72.2        382         73       1344      -0.53       0.00       0.00      0.000
4:39am            102          0          0         44         99       72.8       72.2      29.51       72.2        382         73       1344      -0.52       0.00       0.00      0.000
4:40am            102          0          0         44         99       72.8       72.1      29.51       72.1        382         73       1337      -0.62       0.00       0.00      0.000
4:41am            102          0          0         44         99       72.8       72.1      29.51       72.1        383         73       1338      -0.61       0.00       0.00      0.000
4:42am            102          0          0         44         99       72.8       72.2      29.51       72.2        383         73       1345      -0.50       0.00       0.00      0.000
4:43am            102          0          0         44         99       72.8       72.1      29.51       72.1        383         73       1338      -0.59       0.00       0.00      0.000
4:44am            102          0          0         44         99       72.8       72.1      29.51       72.1        382         73       1337      -0.58       0.00       0.00      0.000
4:45am            102          0          0         44         99       73.0       72.1      29.51       72.1        383         73       1338      -0.57       0.00       0.00      0.000
4:46am            102          0          0         44         99       73.0       72.1      29.51       72.1        384         73       1339      -0.56       0.00       0.00      0.000
4:47am            102          0          0         44         99       73.0       72.1      29.51       72.1        384         73       1339      -0.55       0.00       0.00      0.000
4:48am            102          0          0         44         99       73.0       72.1      29.51       72.1        384         73       1341      -0.54       0.00       0.00      0.000
4:49am            102          0          0         44         99       73.0       72.0      29.51       72.0        385         73       1335      -0.63       0.00       0.00      0.000
4:50am            102          1          1         44         99       73.0       72.1      29.51       72.1        385         73       1342      -0.52       0.00       0.00      0.000
4:51am            102          0          1         44         99       73.0       72.1      29.51       72.1        384         73       1341      -0.51       0.00       0.00      0.000
4:52am            102          0          1         44         99       72.8       72.0      29.51       72.0        384         73       1334      -0.60       0.00       0.00      0.000
4:53am            102          0          1         44         99       72.8       72.0      29.51       72.0        384         73       1334      -0.59       0.00       0.00      0.000
4:54am            102          0          1         44         99       72.8       72.0      29.51       72.0        384         73       1334      -0.58       0.00       0.00      0.000
4:55am            102          0          1         44         99       72.8       72.0      29.51       72.0        384         73       1334      -0.57       0.00       0.00      0.000
4:56am            102          0          0         44         99       72.8       72.0      29.50       72.0        386         73       1336      -0.56       0.00       0.00      0.000
4:57am            102          0          0         44         99       72.8       72.0      29.50       72.0        388         73       1339      -0.55       0.00       0.00      0.000
4:58am            102          0          0         44         99       72.8       71.9      29.50       71.9        388         73       1332      -0.64       0.00       0.00      0.000
4:59am            102          0          0         45         99       72.8       71.9      29.50       71.9        388         73       1332      -0.63       0.00       0.00      0.000
5:00am            102          0          0         44         99       72.8       71.9      29.50       71.9        388         73       1332      -0.62       0.00       0.00      0.000
5:01am            102          1          1         44         99       72.8       71.9      29.50       71.9        388         73       1332      -0.61       0.00       0.00      0.000
5:02am            102          1          1         44         99       72.8       71.9      29.50       71.9        388         73       1332      -0.60       0.00       0.00      0.000
5:03am            102          1          1         44         99       72.8       71.9      29.50       71.9        388         73       1332      -0.59       0.00       0.00      0.000
5:04am            102          1          1         44         99       72.8       71.9      29.50       71.9        388         73       1332      -0.58       0.00       0.00      0.000
5:05am            102          1          1         44         99       72.8       71.9      29.50       71.9        388         73       1332      -0.57       0.00       0.00      0.000
5:06am            102          0          1         44         99       72.8       71.8      29.50       71.8        388         73       1326      -0.66       0.00       0.00      0.000
5:07am            102          0          1         44         99       72.8       71.8      29.50       71.8        388         73       1326      -0.65       0.00       0.00      0.000
5:08am            102          0          1         44         99       72.8       71.8      29.50       71.8        389         73       1327      -0.64       0.00       0.00      0.000
5:09am            102          0          1         44         99       72.8       71.8      29.50       71.8        388         73       1326      -0.63       0.00       0.00      0.000
5:10am            102          0          1         44         99       72.8       71.8      29.50       71.8        388         73       1326      -0.62       0.00       0.00      0.000
5:11am            102          0          0         44        100       72.8       71.8      29.50       71.8        389          0       1327      -0.61       0.00       0.00      0.000
5:12am            102          0          0         44         99       72.8       71.8      29.50       71.8        388         73       1326      -0.60       0.00       0.00      0.000
5:13am            102          0          0         44         99       72.8       71.8      29.50       71.8        389         73       1327      -0.59       0.00       0.00      0.000
5:14am            102          0          0         44         99       72.8       71.8      29.50       71.8        388         73       1326      -0.58       0.00       0.00      0.000
5:15am            102          0          0         44         99       72.8       71.7      29.50       71.7        389         73       1321      -0.67       0.00       0.00      0.000
5:16am            102          0          0         44         99       72.8       71.7      29.50       71.7        388         73       1320      -0.66       0.00       0.00      0.000
5:17am            102          0          0         44         99       72.8       71.7      29.50       71.7        388         73       1320      -0.65       0.00       0.00      0.000
5:18am            102          0          0         44         99       72.8       71.7      29.50       71.7        387         73       1318      -0.64       0.00       0.00      0.000
5:19am            102          0          0         44         99       72.8       71.7      29.50       71.7        386         73       1317      -0.63       0.00       0.00      0.000
5:20am            102          0          0         44         99       72.8       71.7      29.51       71.7        385         73       1316      -0.62       0.00       0.00      0.000
5:21am            102          0          0         44         99       72.8       71.7      29.51       71.7        385         73       1316      -0.61       0.00       0.00      0.000
5:22am            102          0          0         44         99       72.8       71.6      29.51       71.6        384         73       1309      -0.70       0.00       0.00      0.000
5:23am            102          0          0         44         99       72.8       71.6      29.51       71.6        384         73       1308      -0.69       0.00       0.00      0.000
5:24am            102          0          0         44         99       73.0       71.6      29.51       71.6        384         73       1308      -0.67       0.00       0.00      0.000
5:25am            102          0          0         44         99       73.0       71.6      29.51       71.6        383         73       1306      -0.66       0.00       0.00      0.000
5:26am            102          0          0         44         99       73.0       71.5      29.51       71.5        382         73       1299      -0.75       0.00       0.00      0.000
5:27am            102          0          0         44         99       73.0       71.5      29.51       71.5        381         73       1298      -0.74       0.00       0.00      0.000
5:28am            102          0          0         44         99       73.0       71.5      29.51       71.5        381         73       1298      -0.73       0.00       0.00      0.000
5:29am            102          0          0         44         99       73.0       71.4      29.51       71.4        380         73       1290      -0.81       0.00       0.00      0.000
5:30am            102          0          0         44         99       73.0       71.4      29.51       71.4        380         73       1290      -0.80       0.00       0.00      0.000
5:31am            102          0          0         44         99       73.0       71.4      29.51       71.4        380         73       1290      -0.79       0.00       0.00      0.000
5:32am            102          0          0         44         99       73.0       71.4      29.51       71.4        380         73       1290      -0.78       0.00       0.00      0.000
5:33am            102          0          0         44         99       73.0       71.4      29.51       71.4        379         73       1289      -0.76       0.00       0.00      0.000
5:34am            102          0          0         44         99       73.0       71.4      29.51       71.4        380         73       1290      -0.75       0.00       0.00      0.000
5:35am            102          0          0         44         99       73.0       71.3      29.51       71.3        379         73       1283      -0.84       0.00       0.00      0.000
5:36am            102          0          0         44         99       73.0       71.3      29.51       71.3        379         73       1283      -0.83       0.00       0.00      0.000
5:37am            102          0          0         44         99       73.0       71.3      29.51       71.3        380         73       1284      -0.81       0.00       0.00      0.000
5:38am            102          0          0         44         99       73.0       71.3      29.51       71.3        380         73       1284      -0.80       0.00       0.00      0.000
5:39am            102          0          0         44         99       73.0       71.3      29.51       71.3        380         73       1284      -0.78       0.00       0.00      0.000
5:40am            102          0          0         44         99       73.0       71.2      29.51       71.2        380         73       1278      -0.87       0.00       0.00      0.000
5:41am            102          0          0         44         99       73.0       71.2      29.51       71.2        381         73       1279      -0.86       0.00       0.00      0.000
5:42am            102          0          0         44         99       73.0       71.2      29.51       71.2        381         73       1279      -0.84       0.00       0.00      0.000
5:43am            102          0          0         44         99       73.0       71.2      29.51       71.2        380         73       1278      -0.83       0.00       0.00      0.000
5:44am            102          0          0         44         99       73.0       71.2      29.51       71.2        380         73       1278      -0.82       0.00       0.00      0.000
5:45am            102          0          0         44         99       73.0       71.2      29.51       71.2        380         73       1278      -0.80       0.00       0.00      0.000
5:46am            102          0          0         44         99       73.0       71.2      29.51       71.2        380         73       1278      -0.79       0.00       0.00      0.000
5:47am            102          0          0         44         99       73.0       71.2      29.51       71.2        380         73       1278      -0.78       0.00       0.00      0.000
5:48am            102          0          0         44         99       73.0       71.2      29.51       71.2        380         73       1278      -0.76       0.00       0.00      0.000
5:49am            102          0          0         44         99       73.0       71.2      29.51       71.2        380         73       1278      -0.75       0.00       0.00      0.000
5:50am            102          0          0         44         99       72.8       71.2      29.51       71.2        380         73       1278      -0.74       0.00       0.00      0.000
5:51am            102          0          0         44         99       72.8       71.2      29.51       71.2        381         73       1279      -0.73       0.00       0.00      0.000
5:52am            102          0          0         44         99       72.8       71.2      29.51       71.2        381         73       1279      -0.71       0.00       0.00      0.000
5:53am            102          0          0         44         99       72.8       71.2      29.51       71.2        380         73       1278      -0.70       0.00       0.00      0.000
5:54am            102          0          0         44         99       72.8       71.2      29.51       71.2        380         73       1278      -0.69       0.00       0.00      0.000
5:55am            102          0          0         44         99       72.8       71.1      29.51       71.1        380         73       1271      -0.78       0.00       0.00      0.000
5:56am            102          0          0         44         99       72.8       71.1      29.51       71.1        379         73       1270      -0.77       0.00       0.00      0.000
5:57am            102          0          0         44         99       72.8       71.1      29.51       71.1        379         73       1270      -0.75       0.00       0.00      0.000
5:58am            102          0          0         44         99       72.8       71.1      29.51       71.1        379         73       1270      -0.74       0.00       0.00      0.000
5:59am            102          0          0         44         99       72.8       71.1      29.51       71.1        379         73       1270      -0.73       0.00       0.00      0.000
6:00am            102          0          0         44         99       72.8       71.0      29.51       71.0        379         73       1264      -0.81       0.00       0.00      0.000
6:01am            102          0          0         44         99       72.8       71.0      29.51       71.0        379         73       1264      -0.80       0.00       0.00      0.000
6:02am            102          0          0         44         99       72.8       71.0      29.51       71.0        379         73       1264      -0.79       0.00       0.00      0.000
6:03am            102          0          0         44         99       72.8       71.0      29.51       71.0        378         73       1263      -0.77       0.00       0.00      0.000
6:04am            102          0          0         44         99       72.8       71.0      29.51       71.0        378         73       1263      -0.76       0.00       0.00      0.000
6:05am            102          0          0         44         99       73.0       71.0      29.51       71.0        378         73       1263      -0.75       0.00       0.00      0.000
6:06am            102          0          0         44         99       73.0       71.0      29.51       71.0        378         73       1263      -0.74       0.00       0.00      0.000
6:07am            102          0          0         44         99       73.0       71.0      29.51       71.0        378         73       1263      -0.73       0.00       0.00      0.000
6:08am            102          0          0         44         99       73.0       71.0      29.51       71.0        378         73       1263      -0.71       0.00       0.00      0.000
6:09am            102          0          0         44         99       73.0       71.0      29.51       71.0        378         73       1263      -0.70       0.00       0.00      0.000
6:10am            102          0          0         44         99       73.0       71.0      29.51       71.0        378         73       1263      -0.69       0.00       0.00      0.000
6:11am            102          0          0         44         99       73.0       71.0      29.51       71.0        378         73       1263      -0.68       0.00       0.00      0.000
6:12am            102          0          0         44         99       73.0       71.0      29.51       71.0        379         73       1264      -0.67       0.00       0.00      0.000
6:13am            102          0          0         44         99       73.0       71.0      29.51       71.0        378         73       1263      -0.66       0.00       0.00      0.000
6:14am            102          0          0         44         99       73.0       71.0      29.51       71.0        378         73       1263      -0.65       0.00       0.00      0.000
6:15am            102          0          0         44         99       73.0       71.0      29.51       71.0        378         73       1263      -0.64       0.00       0.00      0.000
6:16am            102          0          0         44         99       73.0       71.1      29.51       71.1        378         73       1269      -0.53       0.00       0.00      0.000
6:17am            102          0          0         44         99       73.0       71.1      29.51       71.1        377         73       1268      -0.52       0.00       0.00      0.000
6:18am            102          0          0         44         99       73.0       71.1      29.51       71.1        377         73       1268      -0.51       0.00       0.00      0.000
6:19am            102          0          0         44         99       73.0       71.1      29.51       71.1        377         73       1268      -0.50       0.00       0.00      0.000
6:20am            102          0          0         44         99       73.0       71.1      29.51       71.1        377         73       1268      -0.49       0.00       0.00      0.000
6:21am            102          0          0         44         99       73.0       71.1      29.51       71.1        377         73       1268      -0.48       0.00       0.00      0.000
6:22am            102          0          0         44         99       73.1       71.1      29.51       71.1        378         73       1269      -0.47       0.00       0.00      0.000
6:23am            102          0          0         44         99       73.1       71.1      29.51       71.1        377         73       1268      -0.47       0.00       0.00      0.000
6:24am            102          0          0         44         99       73.1       71.0      29.51       71.0        378         73       1263      -0.56       0.00       0.00      0.000
6:25am            102          0          0         44         99       73.1       71.0      29.51       71.0        378         73       1263      -0.55       0.00       0.00      0.000
6:26am            102          0          0         44         99       73.1       71.1      29.51       71.1        378         73       1269      -0.44       0.00       0.00      0.000
6:27am            102          0          0         44         99       73.1       71.1      29.51       71.1        378         73       1269      -0.43       0.00       0.00      0.000
6:28am            102          0          0         44         99       73.1       71.0      29.51       71.0        378         73       1263      -0.53       0.00       0.00      0.000
6:29am            102          0          0         44         99       73.1       71.0      29.51       71.0        378         73       1263      -0.52       0.00       0.00      0.000
6:30am            102          0          0         44         99       73.1       71.0      29.51       71.0        378         73       1263      -0.51       0.00       0.00      0.000
6:31am            102          0          0         44         99       73.1       71.0      29.51       71.0        377         73       1261      -0.50       0.00       0.00      0.000
6:32am            102          0          0         44         99       73.1       71.1      29.52       71.1        376         73       1267      -0.39       0.00       0.00      0.000
6:33am            102          0          0         44         99       73.1       71.0      29.52       71.0        376         73       1260      -0.49       0.00       0.00      0.000
6:34am            102          0          0         44         99       73.1       71.1      29.52       71.1        376         73       1267      -0.38       0.00       0.00      0.000
6:35am            102          0          0         44         99       73.1       71.1      29.51       71.1        377         73       1268      -0.37       0.00       0.00      0.000
6:36am            102          0          0         44         99       73.1       71.0      29.51       71.0        377         73       1261      -0.46       0.00       0.00      0.000
6:37am            102          0          0         44         99       73.1       71.0      29.52       71.0        376         73       1260      -0.46       0.00       0.00      0.000
6:38am            102          0          0         44         99       73.1       71.0      29.51       71.0        377         73       1261      -0.45       0.00       0.00      0.000
6:39am            102          0          0         44         99       73.1       71.1      29.51       71.1        377         73       1268      -0.34       0.00       0.00      0.000
6:40am            102          0          0         44         99       73.3       71.0      29.51       71.0        377         73       1261      -0.43       0.00       0.00      0.000
6:41am            102          0          0         44         99       73.3       71.0      29.52       71.0        376         73       1260      -0.43       0.00       0.00      0.000
6:42am            102          0          0         44         99       73.3       71.0      29.51       71.0        377         73       1261      -0.42       0.00       0.00      0.000
6:43am            102          0          0         44         99       73.3       71.0      29.51       71.0        377         73       1261      -0.41       0.00       0.00      0.000
6:44am            102          0          0         44         99       73.3       71.0      29.51       71.0        377         73       1261      -0.41       0.00       0.00      0.000
6:45am            102          0          0         44         99       73.3       71.0      29.51       71.0        377         73       1261      -0.40       0.00       0.00      0.000
6:46am            102          0          0         44         99       73.3       71.0      29.52       71.0        376         73       1260      -0.39       0.00       0.00      0.000
6:47am            102          0          0         44         99       73.3       71.0      29.52       71.0        376         73       1260      -0.39       0.00       0.00      0.000
6:48am            102          0          0         44         99       73.3       71.0      29.52       71.0        376         73       1260      -0.38       0.00       0.00      0.000
6:49am            102          0          0         44         99       73.3       71.0      29.52       71.0        375         73       1259      -0.37       0.00       0.00      0.000
6:50am            102          0          0         44         99       73.3       71.0      29.52       71.0        375         73       1259      -0.37       0.00       0.00      0.000
6:51am            102          0          0         44         99       73.3       71.0      29.52       71.0        375         73       1259      -0.36       0.00       0.00      0.000
6:52am            102          0          0         44         99       73.3       71.0      29.52       71.0        375         73       1259      -0.36       0.00       0.00      0.000
6:53am            102          0          0         44         99       73.3       71.0      29.52       71.0        375         73       1259      -0.35       0.00       0.00      0.000
6:54am            102          0          0         44         99       73.3       71.0      29.52       71.0        375         73       1259      -0.34       0.00       0.00      0.000
6:55am            102          0          0         44         99       73.5       71.0      29.52       71.0        374         73       1258      -0.34       0.00       0.00      0.000
6:56am            102          0          0         44         99       73.5       71.0      29.52       71.0        374         73       1258      -0.33       0.00       0.00      0.000
6:57am            102          0          0         44         99       73.5       71.0      29.52       71.0        374         73       1258      -0.33       0.00       0.00      0.000
6:58am            102          0          0         44         99       73.5       71.0      29.52       71.0        374         73       1258      -0.32       0.00       0.00      0.000
6:59am            102          0          0         44         99       73.5       71.0      29.52       71.0        374         73       1258      -0.32       0.00       0.00      0.000
7:00am            102          0          0         44         99       73.5       70.9      29.52       70.9        374         73       1252      -0.41       0.00       0.00      0.000
7:01am            102          0          0         44         99       73.5       70.9      29.52       70.9        372         73       1249      -0.40       0.00       0.00      0.000
7:02am            102          0          0         44         99       73.5       70.9      29.52       70.9        372         73       1248      -0.40       0.00       0.00      0.000
7:03am            102          0          0         44         99       73.5       70.9      29.52       70.9        370         73       1246      -0.39       0.00       0.00      0.000
7:04am            102          0          0         44         99       73.5       70.9      29.52       70.9        368         73       1244      -0.39       0.00       0.00      0.000
7:05am            102          0          0         44         99       73.5       70.9      29.53       70.9        367         73       1243      -0.38       0.00       0.00      0.000
7:06am            102          0          0         44         99       73.5       70.9      29.53       70.9        366         73       1242      -0.37       0.00       0.00      0.000
7:07am            102          0          0         44         99       73.5       70.8      29.53       70.8        366         73       1235      -0.47       0.00       0.00      0.000
7:08am            102          0          0         44         99       73.5       70.8      29.53       70.8        365         73       1234      -0.46       0.00       0.00      0.000
7:09am            102          0          0         44         99       73.5       70.8      29.53       70.8        365         73       1234      -0.45       0.00       0.00      0.000
7:10am            102          0          0         44         99       73.6       70.8      29.53       70.8        363         73       1232      -0.44       0.00       0.00      0.000
7:11am            102          0          0         44         99       73.6       70.9      29.53       70.9        363         73       1238      -0.34       0.00       0.00      0.000
7:12am            102          0          0         44         99       73.6       70.8      29.53       70.8        363         73       1232      -0.43       0.00       0.00      0.000
7:13am            102          0          0         44         99       73.6       70.9      29.53       70.9        363         73       1238      -0.33       0.00       0.00      0.000
7:14am            102          0          0         44         99       73.6       70.9      29.53       70.9        363         73       1238      -0.32       0.00       0.00      0.000
7:15am            102          0          0         44         99       73.6       70.9      29.53       70.9        363         73       1238      -0.31       0.00       0.00      0.000
7:16am            102          0          0         44         99       73.6       70.9      29.53       70.9        363         73       1238      -0.31       0.00       0.00      0.000
7:17am            102          0          0         44         99       73.6       70.9      29.53       70.9        363         73       1238      -0.30       0.00       0.00      0.000
7:18am            102          0          0         44         99       73.6       70.9      29.53       70.9        363         73       1238      -0.30       0.00       0.00      0.000
7:19am            102          0          0         44         99       73.6       70.9      29.53       70.9        363         73       1238      -0.29       0.00       0.00      0.000
7:20am            102          0          0         44         99       73.6       70.9      29.53       70.9        363         73       1238      -0.29       0.00       0.00      0.000
7:21am            102          0          0         44         99       73.6       70.9      29.53       70.9        363         73       1238      -0.28       0.00       0.00      0.000
7:22am            102          0          0         44         99       73.8       70.9      29.53       70.9        363         73       1238      -0.28       0.00       0.00      0.000
7:23am            102          0          0         44         99       73.8       70.9      29.53       70.9        363         73       1238      -0.28       0.00       0.00      0.000
7:24am            102          0          0         44         99       73.8       70.9      29.53       70.9        363         73       1238      -0.27       0.00       0.00      0.000
7:25am            102          0          0         44         99       73.8       70.9      29.53       70.9        363         73       1238      -0.27       0.00       0.00      0.000
7:26am            102          0          0         44         99       73.8       70.9      29.53       70.9        363         73       1238      -0.26       0.00       0.00      0.000
7:27am            102          0          0         44         99       73.8       70.9      29.53       70.9        363         73       1238      -0.26       0.00       0.00      0.000
7:28am            102          0          0         44         99       73.8       70.9      29.53       70.9        363         73       1238      -0.25       0.00       0.00      0.000
7:29am            102          0          0         44         99       73.8       70.9      29.53       70.9        363         73       1238      -0.25       0.00       0.00      0.000
7:30am            102          0          0         44         99       73.8       70.9      29.53       70.9        362         73       1237      -0.25       0.00       0.00      0.000
7:31am            102          0          0         44         99       73.8       70.9      29.53       70.9        362         73       1237      -0.24       0.00       0.00      0.000
7:32am            102          0          0         44         99       73.8       70.9      29.53       70.9        361         73       1236      -0.24       0.00       0.00      0.000
7:33am            102          0          0         44         99       73.8       70.9      29.53       70.9        361         73       1235      -0.23       0.00       0.00      0.000
7:34am            102          0          0         44         99       73.8       70.9      29.53       70.9        360         73       1234      -0.23       0.00       0.00      0.000
7:35am            102          0          0         44         99       74.0       71.0      29.54       71.0        358         73       1238      -0.13       0.00       0.00      0.000
7:36am            102          0          0         44         99       74.0       71.0      29.54       71.0        357         73       1237      -0.13       0.00       0.00      0.000
7:37am            102          0          0         44         99       74.0       71.0      29.54       71.0        354         73       1233      -0.12       0.00       0.00      0.000
7:38am            102          1          1         44         99       74.0       71.0      29.54       71.0        353         73       1232      -0.12       0.00       0.00      0.000
7:39am            102          0          1         44         99       74.0       70.9      29.54       70.9        352         73       1225      -0.22       0.00       0.00      0.000
7:40am            102          0          1         44         99       74.0       71.0      29.54       71.0        351         73       1230      -0.12       0.00       0.00      0.000
7:41am            102          0          0         44         99       74.0       71.0      29.54       71.0        351         73       1230      -0.11       0.00       0.00      0.000
7:42am            102          3          3         44         99       74.0       71.0      29.54       71.0        351         73       1230      -0.11       0.00       0.00      0.000
7:43am            102          2          3         44         99       74.0       71.0      29.54       71.0        352         73       1231      -0.11       0.00       0.00      0.000
7:44am            102          0          3         44         99       74.0       71.0      29.54       71.0        352         73       1231      -0.11       0.00       0.00      0.000
7:45am            102          0          3         44         99       74.0       71.0      29.54       71.0        351         73       1230      -0.11       0.00       0.00      0.000
7:46am            102          0          0         45         99       74.0       71.0      29.54       71.0        351         73       1230      -0.10       0.00       0.00      0.000
7:47am            102          0          0         44         99       74.0       71.0      29.54       71.0        350         73       1229      -0.10       0.00       0.00      0.000
7:48am            102          0          0         44         99       74.2       71.0      29.54       71.0        350         73       1229      -0.10       0.00       0.00      0.000
7:49am            102          0          0         44         99       74.2       71.1      29.54       71.1        350         73       1235       0.00       0.00       0.00      0.000
7:50am            102          0          0         44         99       74.2       71.1      29.54       71.1        350         73       1235       0.00       0.00       0.00      0.000
7:51am            102          0          0         44         99       74.2       71.1      29.54       71.1        351         73       1236       0.00       0.00       0.00      0.000
7:52am            102          0          0         44         99       74.2       71.1      29.54       71.1        351         73       1236       0.00       0.00       0.00      0.000
7:53am            100          2          5         45         99       74.2       71.1      29.54       71.1        353         73       1238       0.00       0.00       0.00      0.000
7:54am            100          3          5         44         99       74.2       71.2      29.54       71.2        354         73       1246       0.10       0.00       0.00      0.000
7:55am            100          2          5         45         99       74.2       71.1      29.54       71.1        353         73       1238       0.00       0.00       0.00      0.000
7:56am             64          3          4         44         99       74.2       71.1      29.54       71.1        353         73       1238      -0.00       0.00       0.00      0.000
7:57am             64          3          4         45         99       74.2       71.1      29.54       71.1        351         73       1236      -0.00       0.00       0.00      0.000
7:58am             64          1          4         45         99       74.2       71.2      29.54       71.2        350         73       1241       0.10       0.00       0.00      0.000
7:59am             64          0          4         44         99       74.2       71.2      29.54       71.2        350         73       1241       0.10       0.00       0.00      0.000
8:00am             64          0          4         45         99       74.2       71.2      29.54       71.2        350         73       1240       0.10       0.00       0.00      0.000
8:01am             64          0          0         44         99       74.3       71.2      29.54       71.2        350         73       1240       0.09       0.00       0.00      0.000
8:02am             64          0          0         44         99       74.3       71.2      29.54       71.2        350         73       1241       0.09       0.00       0.00      0.000
8:03am             64          0          0         44         99       74.3       71.3      29.54       71.3        350         73       1248       0.19       0.00       0.00      0.000
8:04am             64          0          0         44         99       74.3       71.3      29.54       71.3        350         73       1248       0.19       0.00       0.00      0.000
8:05am             64          0          0         44         99       74.3       71.3      29.54       71.3        350         73       1248       0.19       0.00       0.00      0.000
8:06am             64          0          0         45         99       74.3       71.3      29.54       71.3        351         73       1249       0.18       0.00       0.00      0.000
8:07am             64          0          1         45         99       74.3       71.3      29.54       71.3        351         73       1249       0.18       0.00       0.00      0.000
8:08am             64          0          2         45         99       74.3       71.4      29.54       71.4        351         73       1255       0.27       0.00       0.00      0.000
8:09am             64          2          3         44         99       74.3       71.4      29.54       71.4        351         73       1255       0.27       0.00       0.00      0.000
8:10am             77          3          4         45         99       74.3       71.4      29.54       71.4        351         73       1255       0.26       0.00       0.00      0.000
8:11am             77          0          3         44         98       74.3       71.5      29.54       71.5        351        148       1262       0.36       0.00       0.00      0.000
8:12am             71          3          3         45         98       74.3       71.5      29.54       71.5        351        148       1262       0.35       0.00       0.00      0.000
8:13am             69          2          4         45         98       74.3       71.5      29.54       71.5        351        148       1262       0.35       0.00       0.00      0.000
8:14am             48          4          4         45         98       74.3       71.5      29.54       71.5        350        148       1261       0.34       0.00       0.00      0.000
8:15am             67          1          5         45         98       74.5       71.5      29.54       71.5        351        148       1262       0.34       0.00       0.00      0.000
8:16am             76          4          4         45         98       74.5       71.5      29.54       71.5        350        148       1261       0.33       0.00       0.00      0.000
8:17am             85          6          6         44         98       74.5       71.5      29.54       71.5        350        148       1261       0.33       0.00       0.00      0.000
8:18am             85          1          6         45         98       74.5       71.5      29.54       71.5        350        148       1261       0.32       0.00       0.00      0.000
8:19am             85          5          6         45         98       74.5       71.5      29.54       71.5        350        148       1261       0.32       0.00       0.00      0.000
8:20am             81          4          6         45         98       74.5       71.5      29.54       71.5        350        148       1261       0.31       0.00       0.00      0.000
8:21am             58          5          7         45         98       74.5       71.5      29.54       71.5        350        148       1261       0.31       0.00       0.00      0.000
8:22am             68          3          7         44         98       74.5       71.5      29.54       71.5        350        148       1261       0.30       0.00       0.00      0.000
8:23am             61          3          7         45         98       74.5       71.5      29.54       71.5        350        148       1261       0.30       0.00       0.00      0.000
8:24am             61          2          7         45         98       74.5       71.5      29.54       71.5        351        148       1262       0.29       0.00       0.00      0.000
8:25am             61          1          7         45         97       74.5       71.5      29.54       71.5        351        223       1262       0.29       0.00       0.00      0.000
8:26am             77          2          4         44         97       74.5       71.6      29.54       71.6        351        223       1268       0.38       0.00       0.00      0.000
8:27am             79          3          4         45         97       74.5       71.6      29.54       71.6        350        223       1267       0.37       0.00       0.00      0.000
8:28am             79          0          4         45         97       74.5       71.6      29.54       71.6        350        223       1267       0.37       0.00       0.00      0.000
8:29am             79          1          4         45         97       74.5       71.6      29.54       71.6        350        223       1267       0.36       0.00       0.00      0.000
8:30am             66          4          4         45         97       74.5       71.6      29.54       71.6        350        223       1267       0.36       0.00       0.00      0.000
8:31am             77          3          5         45         97       74.7       71.6      29.54       71.6        350        223       1267       0.35       0.00       0.00      0.000
8:32am             77          1          5         45         97       74.7       71.6      29.54       71.6        350        223       1266       0.34       0.00       0.00      0.000
8:33am             77          1          5         45         97       74.7       71.7      29.54       71.7        350        223       1272       0.44       0.00       0.00      0.000
8:34am             77          1          5         45         97       74.7       71.7      29.54       71.7        350        223       1272       0.43       0.00       0.00      0.000
8:35am             37          0          5         44         97       74.7       71.7      29.54       71.7        350        223       1273       0.42       0.00       0.00      0.000
8:36am             79          5          6         45         97       74.7       71.7      29.54       71.7        350        223       1272       0.42       0.00       0.00      0.000
8:37am             79          2          6         45         97       74.7       71.7      29.54       71.7        350        223       1272       0.41       0.00       0.00      0.000
8:38am             79          0          6         45         97       74.7       71.7      29.54       71.7        350        223       1272       0.40       0.00       0.00      0.000
8:39am             79          1          6         45         97       74.7       71.7      29.54       71.7        350        223       1272       0.40       0.00       0.00      0.000
8:40am             79          0          6         45         97       74.7       71.8      29.54       71.8        350        223       1279       0.49       0.00       0.00      0.000
8:41am             79          0          0         45         97       74.7       71.8      29.55       71.8        349        223       1277       0.48       0.00       0.00      0.000
8:42am             79          0          1         45         97       74.7       71.8      29.55       71.8        349        223       1277       0.47       0.00       0.00      0.000
8:43am             79          0          1         45         97       74.7       71.9      29.55       71.9        348        223       1283       0.56       0.00       0.00      0.000
8:44am             79          1          1         45         97       74.7       71.9      29.55       71.9        347        223       1282       0.55       0.00       0.00      0.000
8:45am             79          1          4         45         97       74.7       71.9      29.55       71.9        346        223       1280       0.55       0.00       0.00      0.000
8:46am             79          0          1         45         97       74.9       71.9      29.55       71.9        346        223       1280       0.54       0.00       0.00      0.000
8:47am             79          0          1         45         97       74.9       72.0      29.55       72.0        344        223       1285       0.63       0.00       0.00      0.000
8:48am             79          2          2         45         96       74.9       72.0      29.55       72.0        344        300       1285       0.62       0.00       0.00      0.000
8:49am             79          0          2         45         96       74.9       71.9      29.55       71.9        343        300       1277       0.51       0.00       0.00      0.000
8:50am             79          0          2         45         96       74.9       72.0      29.55       72.0        342        300       1282       0.60       0.00       0.00      0.000
8:51am             79          0          0         45         96       74.9       72.0      29.55       72.0        341        300       1281       0.59       0.00       0.00      0.000
8:52am             79          1          2         45         96       74.9       72.0      29.55       72.0        341        300       1281       0.58       0.00       0.00      0.000
8:53am             79          0          2         45         96       74.9       72.0      29.55       72.0        342        300       1282       0.57       0.00       0.00      0.000
8:54am             79          2          2         45         96       74.9       72.0      29.55       72.0        342        300       1282       0.56       0.00       0.00      0.000
8:55am             66          4          7         45         95       74.9       72.0      29.55       72.0        342        377       1282       0.55       0.00       0.00      0.000
8:56am             77          3          4         45         95       74.9       72.0      29.55       72.0        342        377       1282       0.54       0.00       0.00      0.000
8:57am             72          0          4         45         95       74.9       71.9      29.55       71.9        343        376       1277       0.43       0.00       0.00      0.000
8:58am             77          2          4         45         95       74.9       72.0      29.55       72.0        343        377       1283       0.52       0.00       0.00      0.000
8:59am             78          2          4         45         95       74.9       72.0      29.55       72.0        340        377       1280       0.52       0.00       0.00      0.000
9:00am             71          1          4         45         95       74.9       72.0      29.55       72.0        341        377       1281       0.51       0.00       0.00      0.000
9:01am             71          2          2         45         95       75.0       72.0      29.55       72.0        341        377       1281       0.50       0.00       0.00      0.000
9:02am             71          1          2         45         95       75.0       72.0      29.55       72.0        341        377       1281       0.49       0.00       0.00      0.000
9:03am             71          0          2         45         95       75.0       72.1      29.55       72.1        342        377       1289       0.58       0.00       0.00      0.000
9:04am             35          1          5         45         95       75.0       72.1      29.55       72.1        342        377       1289       0.57       0.00       0.00      0.000
9:05am             35          1          5         45         95       75.0       72.1      29.55       72.1        342        377       1289       0.56       0.00       0.00      0.000
9:06am             35          1          1         45         95       75.0       72.1      29.55       72.1        343        377       1290       0.55       0.00       0.00      0.000
9:07am             35          2          2         45         95       75.0       72.2      29.55       72.2        345        377       1298       0.64       0.00       0.00      0.000
9:08am             57          1          4         45         95       75.0       72.2      29.55       72.2        346        377       1300       0.63       0.00       0.00      0.000
9:09am             57          1          4         45         95       75.0       72.2      29.55       72.2        345        377       1298       0.62       0.00       0.00      0.000
9:10am             60          1          4         45         94       75.0       72.2      29.55       72.2        345        455       1298       0.61       0.00       0.00      0.000
9:11am             61          0          3         45         94       75.0       72.3      29.55       72.3        346        455       1306       0.70       0.00       0.00      0.000
9:12am             72          4          4         45         94       75.0       72.3      29.55       72.3        345        455       1305       0.69       0.00       0.00      0.000
9:13am             70          3          4         45         94       75.0       72.3      29.55       72.3        345        455       1305       0.68       0.00       0.00      0.000
9:14am             75          3          5         45         94       75.0       72.3      29.55       72.3        345        455       1305       0.66       0.00       0.00      0.000
9:15am             76          4          5         45         94       75.0       72.3      29.55       72.3        345        455       1305       0.65       0.00       0.00      0.000
9:16am             76          4          4         45         94       75.0       72.3      29.55       72.3        345        455       1305       0.64       0.00       0.00      0.000
9:17am             76          0          4         45         94       75.0       72.3      29.55       72.3        347        455       1307       0.63       0.00       0.00      0.000
9:18am             76          1          4         45         94       75.2       72.3      29.55       72.3        347        455       1307       0.62       0.00       0.00      0.000
9:19am             76          4          4         45         94       75.2       72.4      29.55       72.4        348        455       1315       0.71       0.00       0.00      0.000
9:20am             70          3          4         45         94       75.2       72.4      29.55       72.4        349        455       1316       0.70       0.00       0.00      0.000
9:21am             70          2          4         45         94       75.2       72.3      29.55       72.3        349        455       1309       0.59       0.00       0.00      0.000
9:22am             70          2          4         45         94       75.2       72.3      29.54       72.3        350        455       1310       0.58       0.00       0.00      0.000
9:23am             70          2          4         45         94       75.2       72.3      29.54       72.3        350        455       1310       0.57       0.00       0.00      0.000
9:24am             70          2          4         45         94       75.2       72.3      29.54       72.3        350        455       1310       0.56       0.00       0.00      0.000
9:25am             52          2          4         45         94       75.2       72.4      29.54       72.4        350        455       1317       0.65       0.00       0.00      0.000
9:26am             52          1          2         45         94       75.2       72.3      29.54       72.3        350        455       1310       0.54       0.00       0.00      0.000
9:27am             52          0          2         45         94       75.2       72.4      29.54       72.4        350        455       1317       0.63       0.00       0.00      0.000
9:28am             41          1          3         45         94       75.2       72.4      29.54       72.4        350        455       1317       0.62       0.00       0.00      0.000
9:29am             41          2          3         45         94       75.2       72.5      29.54       72.5        350        455       1323       0.70       0.00       0.00      0.000
9:30am             41          1          3         45         94       75.2       72.4      29.54       72.4        350        455       1317       0.59       0.00       0.00      0.000
9:31am             60          2          2         46         94       75.2       72.4      29.54       72.4        350        455       1317       0.58       0.00       0.00      0.000
9:32am             77          1          3         45         94       75.2       72.4      29.55       72.4        349        455       1316       0.57       0.00       0.00      0.000
9:33am             77          0          3         45         94       75.2       72.5      29.55       72.5        349        455       1322       0.66       0.00       0.00      0.000
9:34am             77          1          3         45         95       75.2       72.5      29.55       72.5        349        377       1322       0.65       0.00       0.00      0.000
9:35am             77          1          3         45         94       75.2       72.5      29.55       72.5        349        455       1322       0.64       0.00       0.00      0.000
9:36am             77          0          1         45         95       75.4       72.5      29.55       72.5        349        377       1322       0.63       0.00       0.00      0.000
9:37am             77          0          1         45         95       75.4       72.6      29.55       72.6        349        378       1328       0.72       0.00       0.00      0.000
9:38am             77          0          1         45         95       75.4       72.6      29.55       72.6        349        378       1328       0.71       0.00       0.00      0.000
9:39am             77          2          2         45         95       75.4       72.6      29.55       72.6        349        378       1328       0.69       0.00       0.00      0.000
9:40am             77          1          2         45         94       75.4       72.6      29.55       72.6        349        455       1328       0.68       0.00       0.00      0.000
9:41am             77          0          1         45         94       75.4       72.7      29.55       72.7        349        456       1335       0.77       0.00       0.00      0.000
9:42am             77          1          1         45         95       75.4       72.7      29.55       72.7        349        378       1335       0.76       0.00       0.00      0.000
9:43am             77          0          1         45         95       75.4       72.7      29.55       72.7        349        378       1335       0.74       0.00       0.00      0.000
9:44am             76          4          4         45         95       75.4       72.7      29.55       72.7        349        378       1335       0.73       0.00       0.00      0.000
9:45am             76          0          4         45         94       75.4       72.7      29.55       72.7        349        456       1335       0.72       0.00       0.00      0.000
9:46am             76          1          1         45         94       75.4       72.6      29.55       72.6        349        455       1328       0.61       0.00       0.00      0.000
9:47am             76          0          2         45         94       75.4       72.6      29.55       72.6        349        455       1328       0.60       0.00       0.00      0.000
9:48am             76          1          2         45         94       75.4       72.6      29.55       72.6        348        455       1327       0.59       0.00       0.00      0.000
9:49am             76          1          2         45         94       75.4       72.6      29.55       72.6        347        455       1326       0.58       0.00       0.00      0.000
9:50am             76          0          2         45         94       75.4       72.6      29.55       72.6        346        455       1325       0.57       0.00       0.00      0.000
9:51am             76          1          1         45         94       75.4       72.6      29.55       72.6        345        455       1324       0.56       0.00       0.00      0.000
9:52am             76          1          2         45         94       75.4       72.6      29.55       72.6        344        455       1323       0.55       0.00       0.00      0.000
9:53am             76          3          3         45         94       75.4       72.6      29.55       72.6        342        455       1321       0.54       0.00       0.00      0.000
9:54am             76          1          3         45         94       75.4       72.6      29.55       72.6        342        455       1321       0.53       0.00       0.00      0.000
9:55am             76          2          4         45         94       75.4       72.6      29.55       72.6        343        455       1322       0.52       0.00       0.00      0.000
9:56am             76          0          3         45         94       75.4       72.6      29.55       72.6        344        455       1323       0.51       0.00       0.00      0.000
9:57am             76          2          3         45         94       75.4       72.6      29.55       72.6        342        455       1321       0.51       0.00       0.00      0.000
9:58am             76          3          3         45         94       75.4       72.6      29.55       72.6        342        455       1321       0.50       0.00       0.00      0.000
9:59am             75          2          4         45         94       75.4       72.6      29.55       72.6        343        455       1322       0.49       0.00       0.00      0.000
10:00am            75          3          4         45         94       75.2       72.6      29.55       72.6        343        455       1322       0.48       0.00       0.00      0.000
10:01am            79          1          4         45         94       75.2       72.6      29.55       72.6        343        455       1322       0.47       0.00       0.00      0.000
10:02am            79          1          4         45         94       75.2       72.6      29.55       72.6        344        455       1323       0.47       0.00       0.00      0.000
10:03am            79          3          4         45         94       75.2       72.6      29.55       72.6        345        455       1324       0.46       0.00       0.00      0.000

Data provided from:  Mark Hofmann's Bel Air, MD Weather Station